User: anonymous   Login
Location: ?????
(31.8092°N, 35.2590°E)
Time: 19:13:56
(UTC+00:00)
Language:

Cosmos 2237 Rocket - Orbit

View from above orbital plane
View from above orbital plane
View from above satellite
View from above satellite

Ground track
Ground track

The orbit data is extracted from the following two-line orbital elements,

1 22566U 93016B   21261.49488332  .00000082  00000-0  67161-4 0  9998
2 22566  71.0092  44.2682 0012525 285.8797  74.0945 14.14979171471127
Epoch (UTC): 18 September 2021 11:52:37
Eccentricity: 0.0012525
inclination: 71.0092°
perigee height: 833 km
apogee height: 851 km
right ascension of ascending node: 44.2682°
argument of perigee: 285.8797°
revolutions per day: 14.14979171
mean anomaly at epoch: 74.0945°
orbit number at epoch: 47112

The dashed part of the orbit path shows where the satellite is in the earth's shadow,  

DLR